CDT,Max TemperatureF,Mean TemperatureF,Min TemperatureF,Max Dew PointF,MeanDew PointF,Min DewpointF,Max Humidity, Mean Humidity, Min Humidity, Max Sea Level PressureIn, Mean Sea Level PressureIn, Min Sea Level PressureIn, Max VisibilityMiles, Mean VisibilityMiles, Min VisibilityMiles, Max Wind SpeedMPH, Mean Wind SpeedMPH, Max Gust SpeedMPH,PrecipitationIn, CloudCover, Events, WindDirDegrees
2012-5-1,60,51,42,48,45,43,100,77,63,29.99,29.93,29.85,10,9,6,17,7,23,0.00,2,,178
2012-5-2,78,62,46,61,53,45,100,84,57,29.87,29.79,29.66,10,8,2,22,7,29,0.24,4,Thunderstorm,167
2012-5-3,71,61,51,64,58,50,100,90,73,29.92,29.84,29.78,10,8,1,17,7,23,0.49,4,Thunderstorm,180
2012-5-4,60,53,46,52,44,37,94,73,52,30.13,30.06,29.91,10,10,9,21,10,28,0.00,3,,49
2012-5-5,53,50,46,46,40,36,87,73,58,30.16,30.12,30.07,10,10,8,16,9,16,0.02,5,,70
2012-5-6,50,47,44,46,42,36,100,82,62,30.13,30.07,29.98,10,10,7,18,7,24,0.16,8,,72
2012-5-7,60,54,48,52,47,45,100,84,72,29.98,29.89,29.82,10,9,1,10,6,,0.00,6,,106
2012-5-8,57,52,48,52,48,45,100,91,77,29.87,29.81,29.79,10,8,2,13,4,16,0.27,7,Thunderstorm,70
2012-5-9,60,50,39,45,38,30,93,66,34,29.95,29.91,29.85,10,10,9,15,6,24,0.01,4,,32
2012-5-10,68,52,37,39,36,30,100,55,30,30.00,29.95,29.90,10,10,8,18,5,25,0.00,1,,250
2012-5-11,75,63,51,52,43,34,64,51,37,30.09,30.00,29.95,10,10,10,21,9,29,0.00,2,,233
2012-5-12,62,53,44,50,38,27,82,52,26,30.29,30.23,30.10,10,10,10,16,9,22,0.00,2,,53
2012-5-13,71,55,39,43,37,28,100,53,21,30.27,30.18,30.06,10,10,9,17,5,23,0.00,0,,209
2012-5-14,80,65,50,48,43,39,72,44,23,30.06,29.95,29.87,10,10,8,21,9,29,0.00,1,,229
2012-5-15,82,63,44,48,43,36,76,47,21,30.04,29.81,29.70,10,10,10,21,10,30,0.00,1,,277
2012-5-16,60,48,35,39,35,28,93,59,29,30.15,30.10,30.04,10,10,10,16,5,21,0.00,0,,121
2012-5-17,64,50,37,43,37,30,93,54,36,30.20,30.11,30.00,10,10,6,16,7,20,0.00,2,,175
2012-5-18,75,64,53,50,44,39,63,47,34,30.01,29.97,29.93,10,10,8,18,9,24,0.00,0,,190
2012-5-19,80,68,57,57,51,43,63,50,42,30.01,29.98,29.93,10,10,8,18,8,28,0.00,0,,199
2012-5-20,78,71,64,66,56,54,88,65,54,30.00,29.91,29.78,10,10,7,20,9,31,0.10,1,Thunderstorm,197
2012-5-21,60,54,48,45,43,39,82,69,51,30.16,30.13,30.02,10,10,10,15,10,23,0.00,3,,22
2012-5-22,51,45,39,45,39,37,100,90,71,30.14,30.05,29.93,10,8,0,12,3,,0.00,0,,113
2012-5-23,69,56,42,46,44,36,100,56,34,29.92,29.82,29.70,10,10,8,21,5,25,0.00,0,,175
2012-5-24,75,66,57,63,50,45,83,53,38,29.71,29.61,29.45,10,10,7,26,12,43,0.09,1,Thunderstorm,180
2012-5-25,75,66,57,64,49,39,94,57,27,30.12,29.88,29.53,10,10,7,14,9,26,0.09,1,Thunderstorm,272
2012-5-26,66,58,51,57,50,46,88,75,59,30.22,30.16,30.06,10,10,5,16,5,21,0.00,2,,94
2012-5-27,75,65,55,64,60,48,100,82,69,30.13,29.91,29.74,10,10,4,22,10,40,1.75,3,Thunderstorm,177
2012-5-28,84,72,60,70,64,59,94,81,54,29.73,29.65,29.59,10,9,3,17,6,28,0.11,3,Thunderstorm,229
2012-5-29,69,61,53,64,49,41,94,64,38,29.81,29.71,29.61,10,10,10,17,8,28,0.01,3,,272
2012-5-30,55,50,44,52,43,37,94,79,51,30.01,29.92,29.79,10,10,10,12,4,16,0.00,7,,36
2012-5-31,55,47,39,39,37,32,93,64,41,30.09,30.04,29.97,10,10,10,13,5,16,0.00,1,,57